TUBIN
1 48900U 21059X   25276.64010366  .00121307  00000-0  83138-3 0  9996
2 48900  97.6752  96.3446 0002398 167.4501 192.6823 15.74369655238204
LEDSAT
1 49069U 21073D   25276.20510520  .00727380  23232-3  17462-2 0  9992
2 49069  97.3694   4.3877 0005850 296.6959  63.3718 15.96500781229598
CUTE
1 49263U 21088D   25276.21101423  .00042030  00000-0  67753-3 0  9999
2 49263  97.4416 356.2043 0006559 159.8397 200.3117 15.52794569222336
TeikyoSat 4
1 49396U 21102B   25276.55005510  .00004347  00000-0  28452-3 0  9992
2 49396  97.4012 310.7659 0014334  95.5346 264.7518 15.08172863214027
Z-Sat
1 49399U 21102E   25276.54527380  .00008808  00000-0  46663-3 0  9998
2 49399  97.3698 314.6034 0019181  64.6919 295.6298 15.15471454214537
KOSEN 1
1 49402U 21102H   25276.06356359  .00015169  00000-0  66435-3 0  9993
2 49402  97.3597 318.4609 0016176  40.1223 320.1205 15.21993940214840
HO-113
1 50466U 21131B   25276.66016995  .00001647  00000-0  52645-3 0  9996
2 50466  98.5075   5.4361 0004970 138.4105 221.7462 14.40967747198166
SNUGLITE 2
1 52899U 22065F   25276.66351208  .00003238  00000-0  63310-3 0  9993
2 52899  98.1852  57.6360 0008683 107.4773 252.7379 14.63539110173468
UmKA 1 (RS40S)
1 57172U 23091G   25276.58106929  .00012546  00000-0  64008-3 0  9998
2 57172  97.5459 331.3769 0012491 295.0945  64.8992 15.16805049125056
CubeBel-2 (EU11S)
1 57175U 23091K   25276.60797927  .00019307  00000-0  85378-3 0  9993
2 57175  97.5458 333.3206 0010041 300.5490  59.4755 15.21691831125181
ENSO
1 58470U 23185J   25274.64559369  .00294403  00000-0  17996-2 0  9996
2 58470  97.3585 354.6123 0002855 341.7791  18.3372 15.76527964102851
SONATE-2
1 59112U 24043Q   25276.33558610  .00049716  00000-0  12276-2 0  9991
2 59112  97.5272  50.2546 0010524  62.1861 298.0450 15.40294165 88124
MO-122
1 60209U 24125G   25276.57456761  .00042753  00000-0  10314-2 0  9996
2 60209  97.2644 127.1450 0018590  80.1587 280.1758 15.40911434 69786
GRBBeta
1 60237U 24128C   25276.62197804  .00010094  00000-0  71955-3 0  9998
2 60237  61.9920  34.6586 0056908  82.0407 278.7138 15.03788883 67648
Curium One
1 60242U 24128H   25276.57415714  .00018273  00000-0  11773-2 0  9999
2 60242  61.9815  31.2071 0056550  78.4617 282.2817 15.07128422 67706
ROBUSTA-3A
1 60243U 24128J   25276.48308669  .00017368  00000-0  11381-2 0  9999
2 60243  61.9891  32.7700 0056354  76.0660 284.6692 15.06543102 67678
CatSat
1 60246U 24125J   25276.05236503  .00045022  00000-0  13062-2 0  9995
2 60246  97.2459 124.4688 0039923  44.0823 316.3591 15.34573464 67661
HYPERVIEW-1G (RS66S)
1 61772U 24199AP  25276.63275700  .00049423  00000-0  11846-2 0  9994
2 61772  97.3330 145.5189 0013695 128.6163 231.6312 15.41158094 94799
AO-123
1 61781U 24199AY  25276.60673220  .00014385  00000-0  49400-3 0  9997
2 61781  97.3356 142.8879 0016349 140.2793 219.9648 15.30103183 94610
ZIMSAT 2
1 61783U 24199BA  25276.65798937  .00113281  00000-0  18510-2 0  9999
2 61783  97.3273 147.3824 0012640 120.1240 240.1268 15.52063170 98077
HADES-R (SO-124)
1 62690U 25009CK  25276.18745340  .00145426  00000-0  35702-2 0  9994
2 62690  97.3995 357.1923 0001264  42.1528 317.9815 15.40110564 39869
HYDRA-T
1 62692U 25009CM  25276.21012960  .00151842  00000-0  36553-2 0  9999
2 62692  97.3998 357.3139 0001103  26.7154 333.4148 15.40681155 39872
JINJUSat 1B
1 63210U 25052A   25276.45039611  .00034665  00000-0  14447-2 0  9993
2 63210  97.4237 169.1973 0001627 289.2585  70.8476 15.23623606 30871
NUSHSAT 1
1 63211U 25052B   25276.22044175  .00036508  00000-0  14951-2 0  9998
2 63211  97.4233 169.0184 0001576 306.8439  53.2653 15.24203056 30841
TEVEL2-4
1 63213U 25052D   25275.67013121  .00034477  00000-0  14335-2 0  9994
2 63213  97.4149 168.1622 0001811 353.4334   6.6880 15.23705166 30752
TEVEL2-5
1 63214U 25052E   25276.46097821  .00035341  00000-0  14689-2 0  9995
2 63214  97.4150 168.9382 0001681 350.3870   9.7335 15.23710467 30874
TEVEL2-6
1 63215U 25052F   25276.26915880  .00034940  00000-0  14546-2 0  9994
2 63215  97.4150 168.7397 0001777 351.2741   8.8465 15.23659097 30844
TEVEL2-1
1 63217U 25052H   25276.23255424  .00034474  00000-0  14468-2 0  9999
2 63217  97.4128 168.5705 0002552   4.5683 355.5577 15.23388008 30833
TEVEL2-3
1 63218U 25052J   25276.23249967  .00034129  00000-0  14319-2 0  9997
2 63218  97.4133 168.5734 0002661   7.2951 352.8324 15.23397992 30833
TEVEL2-2
1 63219U 25052K   25275.64212808  .00033886  00000-0  14240-2 0  9998
2 63219  97.4127 167.9872 0002723   6.4223 353.7048 15.23346968 30745
TEVEL2-9
1 63237U 25052AD  25276.65703181  .00028231  00000-0  12326-2 0  9990
2 63237  97.4191 168.7863 0006809 347.5818  12.5249 15.22068834 30872
TEVEL2-7
1 63238U 25052AE  25276.66516921  .00027264  00000-0  11942-2 0  9994
2 63238  97.4194 168.7804 0006888 347.0961  13.0098 15.21966057 30873
TEVEL2-8
1 63239U 25052AF  25276.14354288  .00031869  00000-0  13967-2 0  9999
2 63239  97.4192 168.2535 0006947 350.1363   9.9736 15.21913455 30793
HYDRA-W
1 63490U 25052BL  25276.65897879  .00076982  00000-0  25481-2 0  9991
2 63490  97.4130 170.0107 0008129 342.1658  17.9297 15.30991055 30964
HADES-ICM (SO-125)
1 63492U 25052BN  25276.65580020  .00071831  00000-0  24509-2 0  9998
2 63492  97.4143 169.8793 0008836 344.3674  15.7292 15.30025528 30957
